Flag for Australia Weather past 2 weeks in Lord Howe Island, Lord Howe Island, Australia

Now
67 °F

Passing clouds.


Feels Like: 67 °F
Forecast: 70 / 72 °F
Wind: 23 mph from West

Location: Lord Howe Island

Current Time: Apr 26, 2015 at 10:39:35 PM

Latest Report: Apr 26, 2015 at 9:00 PM


Visibility: N/A

Pressure: 29.69 "Hg

Humidity: 71%

Dew point: 57 °F

Location of Lord Howe IslandLocation

Historic Weather in Lord Howe Island — Graph

°F

Lord Howe Island temperature yesterday

Maximum temperature yesterday: 76 °F (at 10:30 AM)
Minimum temperature yesterday: 67 °F (at 7:30 PM)
Average temperature yesterday: 72 °F

Past Weeks' High & Low Weather Summary

 TemperatureHumidityPressure
High76 °F (Apr 18, 12:00 PM)97% (Apr 22, 5:30 AM)30.34 "Hg (Apr 22, 5:30 AM)
Low62 °F (Apr 16, 6:00 AM)48% (Apr 12, 1:30 PM)29.60 "Hg (Apr 26, 3:00 PM)
Average71 °F74%30.05 "Hg
* Reported Apr 11 9:00 PM — Apr 26 9:00 PM, Lord Howe Island, Weather by CustomWeather, © 2015

Note: Actual official high and low records may vary slightly from our data, if they occured in-between our weather recording intervals... More about our weather records

Advertising

Lord Howe Island weather history for previous 24 hours

 ConditionsComfort  
Time TempWeatherWind HumidityBarometerVisibility
9:00 PM
Sun, Apr 26
67 °FPassing clouds.23 mph71%29.69 "HgN/A
7:30 PM69 °FMild.25 mph58%29.68 "HgN/A
6:00 PM68 °FPassing clouds.24 mph57%29.66 "HgN/A
4:30 PM70 °FMild.29 mph66%29.63 "HgN/A
3:00 PM75 °FPartly sunny.15 mph52%29.60 "Hg16 mi
1:30 PM76 °FMild.9 mph58%29.62 "HgN/A
12:00 PM72 °FThundershowers. Overcast.6 mph63%29.66 "Hg19 mi
10:30 AM68 °FMild.6 mph76%29.71 "HgN/A
9:00 AM76 °FScattered clouds.7 mph68%29.72 "Hg19 mi
7:30 AM73 °FMild.5 mph66%29.72 "HgN/A
6:00 AM72 °FPassing clouds.7 mph68%29.72 "Hg19 mi
4:30 AM72 °FMild.7 mph71%29.71 "HgN/A
3:00 AM72 °FPassing clouds.6 mph77%29.72 "HgN/A
1:30 AM71 °FMild.6 mph81%29.75 "HgN/A
12:00 AM70 °FMild.3 mph81%29.77 "HgN/A
10:30 PM
Sat, Apr 25
68 °FMild.2 mph87%29.79 "HgN/A
Weather by CustomWeather, © 2015

See weather overviewHow to use our weather pages